QPF
0.00 0.00 0.00 0.00 0.00 0.00 0.00 0.00 0.00 0.00 0.00 0.00 0.00 0.00 0.00 0.00 0.00 0.00 0.00 0.00 0.00 0.00 0.00 0.00 0.00 0.00 0.00 0.00 0.00 0.00 0.00 0.00 0.00 0.00 0.00 0.00 0.00 0.00 0.00 0.00 0.00 0.00 0.00
0.00 0.00 0.00 0.00 0.00 0.00 0.00 0.00 0.00 0.00 0.00 0.00 0.00 0.00 0.00 0.00 0.00 0.00 0.00 0.00 0.00 0.00 0.00 0.00 0.00 0.00 0.00 0.00 0.00 0.00 0.00 0.00 0.00 0.00 0.00 0.00 0.00 0.00 0.00 0.00 0.00 0.00 0.00
0.00 0.00 0.00 0.00 0.00 0.00 0.00 0.00 0.00 0.00 0.00 0.00 0.00 0.00 0.00 0.00 0.00 0.00 0.00 0.00 0.00 0.00 0.00 0.00 0.00 0.00 0.00 0.00 0.00 0.00 0.00 0.00 0.00 0.00 0.00 0.00 0.00 0.00 0.00 0.00 0.00 0.00 0.00
0.00 0.00 0.00 0.00 0.00 0.00 0.00 0.00 0.00 0.00 0.00 0.00 0.00 0.00 0.00 0.00 0.00 0.00 0.00 0.00 0.00 0.00 0.00 0.00 0.00 0.00 0.00 0.00 0.00 0.00 0.00 0.00 0.00 0.00 0.00 0.00 0.00 0.00 0.00 0.00 0.00 0.00 0.00
0.00 0.00 0.00 0.00 0.00 0.00 0.00 0.00 0.00 0.00 0.00 0.00 0.00 0.00 0.00 0.00 0.00 0.00 0.00 0.00 0.00 0.00 0.00 0.00 0.00 0.00 0.00 0.00 0.00 0.00 0.00 0.00 0.00 0.00 0.00 0.00 0.00 0.00 0.00 0.00 0.00 0.00 0.00
0.00 0.00 0.00 0.00 0.00 0.00 0.00 0.00 0.00 0.00 0.00 0.00 0.00 0.00 0.00 0.00 0.00 0.00 0.00 0.00 0.00 0.00 0.00 0.00 0.00 0.00 0.00 0.00 0.00 0.00 0.00 0.00 0.00 0.00 0.00 0.00 0.00 0.00 0.00 0.00 0.00 0.00 0.00
0.00 0.00 0.00 0.00 0.00 0.00 0.00 0.00 0.00 0.00 0.00 0.00 0.00 0.00 0.00 0.00 0.00 0.00 0.00 0.00 0.00 0.00 0.00 0.00 0.00 0.00 0.00 0.00 0.00 0.00 0.00 0.00 0.00 0.00 0.00 0.00 0.00 0.00 0.00 0.00 0.00 0.00 0.00
0.00 0.00 0.00 0.00 0.00 0.00 0.00 0.00 0.00 0.00 0.00 0.00 0.00 0.00 0.00 0.00 0.00 0.00 0.00 0.00 0.00 0.00 0.00 0.00 0.00 0.00 0.00 0.00 0.00 0.00 0.00 0.00 0.00 0.00 0.00 0.00 0.00 0.00 0.00 0.00 0.00 0.00 0.00
0.00 0.00 0.00 0.00 0.00 0.00 0.00 0.00 0.00 0.00 0.00 0.00 0.00 0.00 0.00 0.00 0.00 0.00 0.00 0.00 0.00 0.00 0.00 0.00 0.00 0.00 0.00 0.00 0.00 0.00 0.00 0.00 0.00 0.00 0.00 0.00 0.00 0.00 0.00 0.00 0.00 0.00 0.00
0.00 0.00 0.00 0.00 0.00 0.00 0.00 0.00 0.00 0.00 0.00 0.00 0.00 0.00 0.00 0.00 0.00 0.00 0.00 0.00 0.00 0.00 0.00 0.00 0.00 0.00 0.00 0.00 0.00 0.00 0.00 0.00 0.00 0.00 0.00 0.00 0.00 0.00 0.00 0.00 0.00 0.00 0.00
0.00 0.00 0.00 0.00 0.00 0.00 0.00 0.00 0.00 0.00 0.00 0.00 0.00 0.00 0.00 0.00 0.00 0.00 0.00 0.00 0.00 0.00 0.00 0.00 0.00 0.00 0.00 0.00 0.00 0.00 0.00 0.00 0.00 0.00 0.00 0.00 0.00 0.00 0.00 0.00 0.00 0.00 0.00
0.00 0.00 0.00 0.00 0.00 0.00 0.00 0.00 0.00 0.00 0.00 0.00 0.00 0.00 0.00 0.00 0.00 0.00 0.00 0.00 0.00 0.00 0.00 0.00 0.00 0.00 0.00 0.00 0.00 0.00 0.00 0.00 0.00 0.00 0.00 0.00 0.00 0.00 0.00 0.00 0.00 0.00 0.00
0.00 0.00 0.00 0.00 0.00 0.00 0.00 0.00 0.00 0.00 0.00 0.00 0.00 0.00 0.00 0.00 0.00 0.00 0.00 0.00 0.00 0.00 0.00 0.00 0.00 0.00 0.00 0.00 0.00 0.00 0.00 0.00 0.00 0.00 0.00 0.00 0.00 0.00 0.00 0.00 0.00 0.00 0.00
0.00 0.00 0.00 0.00 0.00 0.00 0.00 0.00 0.00 0.00 0.00 0.00 0.00 0.00 0.00 0.00 0.00 0.00 0.00 0.00 0.00 0.00 0.00 0.00 0.00 0.00 0.00 0.00 0.00 0.00 0.00 0.00 0.00 0.00 0.00 0.00 0.00 0.00 0.00 0.00 0.00 0.00 0.00
0.00 0.00 0.00 0.00 0.00 0.00 0.00 0.00 0.00 0.00 0.00 0.00 0.00 0.00 0.00 0.00 0.00 0.00 0.00 0.00 0.00 0.00 0.00 0.00 0.00 0.00 0.00 0.00 0.00 0.00 0.00 0.00 0.00 0.00 0.00 0.00 0.00 0.00 0.00 0.00 0.00 0.00 0.00
0.00 0.00 0.00 0.00 0.00 0.00 0.00 0.00 0.00 0.00 0.00 0.00 0.00 0.00 0.00 0.00 0.00 0.00 0.00 0.00 0.00 0.00 0.00 0.00 0.00 0.00 0.00 0.00 0.00 0.00 0.00 0.00 0.00 0.00 0.00 0.00 0.00 0.00 0.00 0.00 0.00 0.00 0.00
0.00 0.00 0.00 0.00 0.00 0.00 0.00 0.00 0.00 0.00 0.00 0.00 0.00 0.00 0.00 0.00 0.00 0.00 0.00 0.00 0.01 0.01 0.00 0.00 0.00 0.00 0.00 0.00 0.00 0.00 0.00 0.00 0.00 0.00 0.00 0.00 0.00 0.00 0.00 0.00 0.00 0.00 0.00
0.00 0.00 0.00 0.00 0.00 0.00 0.00 0.00 0.00 0.00 0.00 0.00 0.00 0.00 0.00 0.00 0.00 0.00 0.00 0.00 0.00 0.00 0.00 0.00 0.00 0.00 0.00 0.00 0.00 0.00 0.00 0.00 0.00 0.00 0.00 0.00 0.00 0.00 0.00 0.00 0.00 0.00 0.00
0.00 0.00 0.00 0.00 0.00 0.00 0.00 0.00 0.00 0.00 0.00 0.00 0.00 0.00 0.00 0.00 0.00 0.00 0.00 0.00 0.00 0.00 0.00 0.00 0.00 0.00 0.00 0.00 0.00 0.00 0.00 0.00 0.00 0.00 0.00 0.00 0.00 0.00 0.00 0.00 0.00 0.00 0.00
0.00 0.00 0.00 0.00 0.00 0.00 0.00 0.00 0.00 0.00 0.00 0.00 0.00 0.00 0.00 0.00 0.00 0.00 0.00 0.00 0.00 0.00 0.00 0.00 0.00 0.00 0.00 0.00 0.00 0.00 0.00 0.00 0.00 0.00 0.00 0.00 0.00 0.00 0.00 0.00 0.00 0.00 0.00
0.00 0.00 0.00 0.00 0.00 0.00 0.00 0.00 0.00 0.00 0.00 0.00 0.00 0.00 0.00 0.00 0.00 0.00 0.00 0.00 0.00 0.00 0.00 0.00 0.00 0.00 0.00 0.00 0.00 0.00 0.00 0.00 0.00 0.00 0.00 0.00 0.00 0.00 0.00 0.00 0.00 0.00 0.00
0.00 0.00 0.00 0.00 0.00 0.00 0.00 0.00 0.00 0.00 0.00 0.00 0.00 0.00 0.00 0.00 0.00 0.00 0.00 0.00 0.00 0.00 0.00 0.00 0.00 0.00 0.00 0.00 0.00 0.00 0.00 0.00 0.00 0.00 0.00 0.00 0.00 0.00 0.00 0.00 0.00 0.00 0.00
0.00 0.00 0.00 0.00 0.00 0.00 0.00 0.00 0.00 0.00 0.00 0.00 0.00 0.00 0.00 0.00 0.00 0.00 0.00 0.00 0.00 0.00 0.00 0.00 0.00 0.00 0.00 0.00 0.00 0.00 0.00 0.00 0.00 0.00 0.00 0.00 0.00 0.00 0.00 0.00 0.00 0.00 0.00
0.00 0.00 0.00 0.00 0.00 0.00 0.00 0.00 0.00 0.00 0.00 0.00 0.00 0.00 0.00 0.00 0.00 0.00 0.00 0.00 0.00 0.00 0.00 0.00 0.00 0.00 0.00 0.00 0.00 0.00 0.00 0.00 0.00 0.00 0.00 0.00 0.00 0.00 0.00 0.00 0.00 0.00 0.00
0.00 0.00 0.00 0.00 0.00 0.00 0.00 0.00 0.00 0.00 0.00 0.00 0.00 0.00 0.00 0.00 0.00 0.00 0.00 0.00 0.00 0.00 0.00 0.00 0.00 0.00 0.00 0.00 0.00 0.00 0.00 0.00 0.00 0.00 0.00 0.00 0.00 0.00 0.00 0.00 0.00 0.00 0.00
0.00 0.00 0.00 0.00 0.00 0.00 0.00 0.00 0.00 0.00 0.00 0.00 0.00 0.00 0.00 0.00 0.00 0.00 0.00 0.00 0.00 0.00 0.00 0.00 0.00 0.00 0.00 0.00 0.00 0.00 0.00 0.00 0.00 0.00 0.00 0.00 0.00 0.00 0.00 0.00 0.00 0.00 0.00
MSLP
1022.23 1022.93 1023.65 1024.37 1025.14 1026.08 1026.98 1027.72 1028.19 1028.70 1029.26 1029.78 1030.33 1030.84 1031.33 1031.87 1032.25 1032.69 1033.04 1033.28 1033.37 1033.53 1033.81 1033.89 1034.27 1034.64 1035.11 1035.42 1035.62 1035.88 1035.94 1036.14 1036.04 1034.67 1034.23 1033.90 1033.56 1033.19 1032.53 1032.21 1031.80 1031.15 1030.44
1021.97 1022.72 1023.42 1024.10 1024.88 1025.78 1026.59 1027.29 1027.97 1028.48 1029.12 1029.53 1030.05 1030.62 1031.36 1031.81 1032.05 1032.47 1032.86 1032.97 1033.16 1033.34 1033.57 1033.82 1034.18 1034.36 1034.95 1035.33 1035.54 1035.74 1035.82 1035.88 1036.08 1035.22 1034.15 1033.83 1033.61 1033.07 1032.54 1032.04 1031.37 1030.71 1030.19
1021.69 1022.44 1023.29 1023.94 1024.57 1025.37 1026.19 1026.94 1027.62 1028.21 1028.79 1029.49 1030.00 1030.57 1031.16 1031.43 1031.74 1032.12 1032.45 1032.62 1032.99 1033.14 1033.35 1033.65 1033.99 1034.35 1034.78 1034.92 1035.16 1035.43 1035.51 1035.55 1035.54 1035.28 1034.49 1033.77 1033.13 1032.59 1031.95 1031.61 1031.04 1030.27 1029.65
1021.27 1022.11 1022.94 1023.72 1024.16 1024.79 1025.76 1026.61 1027.30 1027.86 1028.51 1029.18 1029.68 1030.25 1030.72 1031.08 1031.53 1031.96 1032.24 1032.48 1032.77 1032.96 1033.18 1033.39 1033.80 1034.04 1034.19 1034.44 1034.59 1034.80 1034.93 1034.96 1035.00 1034.82 1034.15 1033.43 1032.87 1032.01 1031.80 1031.28 1030.04 1029.90 1028.90
1020.94 1021.64 1022.53 1023.35 1024.24 1024.67 1025.21 1026.21 1026.99 1027.65 1028.15 1028.76 1029.54 1030.16 1030.57 1030.96 1031.09 1031.76 1031.75 1032.25 1032.46 1032.76 1032.98 1033.21 1033.43 1033.58 1033.46 1033.64 1033.87 1034.05 1034.29 1034.33 1034.35 1034.17 1033.64 1032.93 1032.34 1031.74 1031.48 1030.94 1030.40 1029.38 1028.26
1020.28 1021.13 1022.04 1023.03 1023.94 1024.89 1024.92 1025.81 1026.70 1027.41 1028.04 1028.69 1029.40 1029.91 1030.26 1030.23 1030.49 1030.83 1031.50 1031.94 1032.21 1032.44 1032.73 1032.93 1033.12 1033.17 1033.09 1032.92 1032.98 1032.96 1033.06 1033.27 1033.42 1033.30 1032.98 1032.54 1031.90 1031.79 1031.36 1030.85 1030.17 1029.48 1028.13
1019.68 1020.64 1021.52 1022.45 1023.28 1024.44 1024.61 1025.35 1026.23 1027.12 1027.88 1028.46 1029.11 1029.52 1029.87 1030.01 1029.95 1030.12 1030.79 1031.72 1031.90 1032.11 1032.36 1032.59 1032.62 1032.60 1032.98 1033.03 1032.79 1032.67 1032.68 1032.61 1032.28 1032.24 1032.03 1032.12 1031.76 1031.58 1031.09 1030.38 1030.23 1029.83 1028.95
1019.12 1020.10 1021.02 1021.97 1022.72 1024.03 1024.34 1024.77 1025.80 1026.72 1027.49 1028.06 1028.48 1029.06 1029.40 1029.67 1029.52 1029.73 1030.20 1031.16 1031.52 1031.70 1031.87 1032.02 1032.26 1032.48 1032.48 1032.54 1032.50 1032.37 1032.50 1032.45 1032.05 1031.82 1031.66 1031.49 1031.35 1030.93 1030.84 1030.47 1030.24 1029.77 1028.98
1018.49 1019.35 1020.32 1021.33 1022.20 1023.40 1023.83 1024.41 1025.36 1026.22 1027.06 1027.44 1028.02 1028.55 1028.90 1029.16 1029.00 1029.28 1029.69 1030.52 1030.95 1031.13 1031.38 1031.58 1031.77 1031.90 1031.75 1031.51 1031.45 1031.60 1031.63 1031.38 1030.93 1030.58 1030.62 1030.59 1030.68 1030.65 1030.64 1030.19 1030.27 1029.86 1028.60
1017.77 1018.61 1019.67 1020.79 1021.80 1022.67 1023.09 1023.92 1024.82 1025.78 1026.23 1027.06 1027.66 1027.98 1028.43 1028.89 1028.79 1028.84 1029.09 1030.03 1030.42 1030.69 1030.83 1030.87 1030.82 1030.91 1030.86 1030.59 1030.57 1030.61 1030.63 1030.59 1030.38 1030.98 1031.15 1031.03 1030.77 1030.68 1030.39 1030.23 1029.87 1029.51 1028.95
1017.39 1018.36 1019.27 1020.10 1021.24 1021.90 1022.60 1023.65 1024.50 1025.40 1026.11 1026.76 1027.08 1027.53 1028.02 1028.49 1028.87 1028.29 1028.41 1029.08 1029.52 1029.96 1030.05 1030.09 1030.22 1030.00 1029.75 1029.60 1029.50 1029.70 1029.66 1029.74 1029.89 1030.68 1030.80 1030.67 1030.46 1030.34 1030.18 1029.83 1029.48 1029.17 1028.68
1017.16 1018.11 1019.08 1020.02 1020.87 1021.69 1022.42 1023.40 1024.22 1025.00 1025.76 1026.30 1026.95 1027.46 1027.55 1027.95 1028.16 1027.94 1027.75 1027.79 1028.51 1029.01 1029.29 1029.43 1029.60 1029.49 1029.28 1029.10 1028.93 1028.70 1028.43 1028.84 1030.55 1030.58 1030.55 1030.35 1030.11 1029.87 1029.60 1029.33 1029.08 1028.70 1028.14
1017.52 1018.31 1019.12 1019.90 1020.56 1021.23 1022.14 1023.19 1024.19 1024.76 1025.27 1025.92 1026.52 1027.02 1027.11 1027.50 1027.92 1027.40 1027.56 1027.36 1027.48 1027.67 1028.12 1028.52 1028.53 1028.46 1028.42 1028.24 1027.90 1028.01 1028.55 1029.62 1030.02 1030.63 1030.43 1030.11 1029.76 1029.36 1029.17 1029.05 1028.73 1028.18 1027.49
1017.67 1018.54 1019.22 1019.90 1020.76 1021.40 1022.08 1022.81 1023.44 1024.04 1024.58 1025.09 1025.87 1026.29 1026.61 1027.10 1027.32 1027.68 1027.72 1027.66 1027.36 1027.11 1027.24 1027.57 1027.54 1027.57 1027.71 1027.73 1028.19 1028.04 1028.55 1029.02 1029.56 1029.87 1029.79 1029.56 1029.23 1029.12 1029.01 1028.85 1028.52 1027.96 1027.19
1017.85 1018.67 1019.46 1020.24 1021.03 1021.82 1022.37 1022.67 1022.90 1023.18 1023.57 1024.34 1025.01 1025.57 1026.13 1026.50 1026.61 1026.52 1026.82 1027.16 1027.28 1027.23 1027.64 1028.17 1027.87 1027.88 1027.58 1027.56 1027.80 1028.08 1028.41 1028.79 1029.09 1029.24 1029.38 1029.40 1029.23 1029.00 1028.70 1028.48 1028.41 1027.96 1027.47
1018.50 1019.40 1020.04 1020.65 1021.33 1022.00 1022.59 1023.05 1022.99 1023.14 1023.47 1023.71 1024.18 1024.94 1025.60 1025.62 1025.53 1025.53 1025.52 1025.56 1025.71 1026.03 1026.76 1027.59 1027.67 1027.53 1027.30 1027.13 1027.18 1027.38 1027.81 1028.18 1028.53 1028.81 1029.01 1029.21 1029.13 1029.04 1028.72 1028.47 1028.37 1027.92 1027.21
1018.85 1019.66 1020.32 1020.94 1021.56 1022.21 1022.85 1023.25 1023.81 1023.62 1023.15 1023.42 1023.57 1023.75 1024.25 1024.87 1024.81 1024.84 1024.81 1024.81 1024.92 1025.05 1025.75 1026.66 1026.85 1026.85 1026.75 1026.73 1026.88 1027.10 1027.40 1027.78 1028.04 1028.35 1028.65 1028.87 1028.96 1029.00 1028.95 1028.59 1028.24 1027.75 1026.97
1019.49 1019.95 1020.46 1021.05 1021.70 1022.46 1023.00 1023.36 1023.66 1023.96 1024.23 1024.19 1024.24 1024.34 1024.68 1025.05 1025.24 1025.20 1025.13 1025.04 1025.81 1026.21 1027.19 1027.88 1028.02 1027.61 1027.13 1026.96 1026.94 1027.05 1027.31 1027.53 1027.76 1028.05 1028.39 1028.58 1028.80 1028.99 1028.98 1028.58 1028.15 1027.69 1026.96
1020.27 1020.64 1021.09 1021.55 1022.03 1022.61 1023.33 1023.82 1024.12 1024.38 1024.68 1024.98 1025.30 1025.52 1026.26 1025.86 1025.96 1026.04 1026.29 1027.30 1028.01 1028.37 1028.36 1028.36 1027.97 1027.65 1027.39 1027.22 1027.16 1027.20 1027.25 1027.33 1027.53 1027.81 1028.14 1028.40 1028.59 1028.83 1028.74 1028.35 1027.88 1027.40 1026.78
1021.20 1021.43 1021.74 1022.20 1022.75 1023.24 1023.70 1024.20 1024.69 1025.05 1025.49 1025.93 1026.39 1026.86 1027.26 1027.54 1027.59 1027.88 1027.89 1028.23 1028.58 1028.71 1028.54 1028.40 1028.11 1027.86 1027.52 1027.26 1027.11 1027.10 1027.16 1027.24 1027.38 1027.54 1027.77 1027.97 1028.14 1028.36 1028.30 1028.00 1027.53 1027.11 1026.44
1022.04 1022.31 1022.53 1023.04 1023.50 1023.93 1024.43 1024.91 1025.39 1025.92 1026.53 1027.02 1027.52 1027.55 1027.60 1028.37 1028.84 1028.93 1028.91 1028.82 1028.83 1028.65 1028.32 1028.15 1028.00 1027.67 1027.32 1027.10 1026.99 1027.00 1027.07 1027.02 1027.01 1027.09 1027.27 1027.48 1027.70 1027.97 1027.81 1027.56 1027.17 1026.72 1026.12
1022.84 1023.34 1023.60 1023.96 1024.34 1024.73 1025.14 1025.51 1026.20 1026.80 1027.38 1027.92 1028.40 1028.35 1028.19 1028.56 1028.79 1028.93 1028.93 1028.92 1028.96 1028.71 1028.22 1028.12 1027.87 1027.42 1026.99 1026.78 1026.65 1026.54 1026.48 1026.44 1026.41 1026.49 1026.76 1026.98 1027.20 1027.31 1027.35 1027.21 1026.87 1026.32 1025.67
1023.65 1024.02 1024.40 1024.69 1024.90 1025.39 1025.92 1026.60 1027.06 1027.51 1028.02 1028.58 1028.65 1028.69 1028.68 1028.69 1028.60 1028.60 1028.61 1028.64 1028.39 1028.05 1027.61 1027.67 1027.31 1026.87 1026.69 1026.50 1026.15 1026.00 1025.99 1025.85 1025.65 1025.80 1026.24 1026.45 1026.61 1026.78 1026.88 1026.86 1026.44 1025.82 1025.11
1024.39 1024.66 1025.11 1025.59 1026.05 1026.37 1026.80 1027.37 1027.87 1028.07 1028.39 1028.70 1028.84 1028.69 1028.40 1028.19 1028.22 1028.32 1028.26 1027.91 1027.73 1027.40 1027.12 1027.00 1026.73 1026.43 1026.29 1026.06 1025.75 1025.57 1025.48 1025.37 1025.31 1025.48 1025.66 1025.86 1025.93 1026.03 1026.11 1026.09 1025.75 1025.18 1024.53
1025.20 1025.49 1025.91 1026.41 1026.84 1027.17 1027.60 1027.99 1028.35 1028.51 1028.43 1028.34 1028.30 1028.16 1027.96 1027.95 1027.96 1027.92 1027.77 1027.41 1027.19 1026.90 1026.44 1026.25 1026.15 1025.90 1025.60 1025.39 1025.16 1024.98 1024.84 1024.65 1024.64 1024.75 1024.96 1025.30 1025.34 1025.27 1025.32 1025.25 1024.96 1024.44 1023.70
1026.10 1026.28 1026.42 1026.68 1027.01 1027.43 1027.65 1027.99 1028.13 1028.12 1028.35 1027.81 1027.69 1027.73 1027.76 1027.60 1027.46 1027.34 1027.13 1026.92 1026.59 1026.24 1026.01 1025.80 1025.48 1025.19 1025.00 1024.80 1024.50 1024.26 1024.00 1023.80 1023.81 1023.80 1023.98 1024.37 1024.54 1024.37 1024.41 1024.33 1024.01 1023.58 1022.68
Thickness
5569 5563 5556 5549 5541 5533 5524 5516 5509 5502 5493 5485 5475 5467 5457 5448 5439 5430 5421 5411 5402 5393 5383 5373 5359 5346 5333 5320 5309 5296 5285 5276 5271 5279 5268 5263 5255 5247 5242 5234 5228 5226 5224
5560 5553 5546 5538 5531 5522 5513 5505 5496 5488 5479 5471 5462 5452 5441 5431 5424 5415 5404 5397 5387 5377 5365 5353 5340 5327 5313 5300 5287 5276 5267 5256 5247 5249 5248 5240 5233 5225 5220 5215 5210 5207 5203
5550 5543 5534 5528 5521 5512 5502 5493 5485 5476 5466 5455 5446 5436 5426 5418 5410 5400 5391 5381 5369 5358 5347 5334 5321 5308 5294 5284 5273 5260 5250 5241 5231 5225 5223 5219 5215 5205 5203 5195 5190 5188 5186
5541 5533 5525 5517 5510 5502 5491 5481 5471 5461 5452 5442 5433 5422 5413 5404 5393 5383 5373 5362 5351 5340 5328 5317 5304 5293 5281 5270 5259 5247 5237 5228 5218 5210 5206 5204 5196 5193 5181 5175 5182 5170 5172
5530 5523 5515 5506 5495 5487 5480 5468 5456 5447 5438 5429 5417 5405 5396 5386 5377 5366 5358 5347 5335 5323 5312 5301 5289 5278 5269 5259 5248 5237 5225 5216 5207 5199 5194 5191 5185 5179 5168 5164 5156 5157 5160
5522 5514 5504 5494 5482 5470 5465 5453 5443 5433 5423 5413 5401 5390 5380 5373 5363 5352 5342 5331 5319 5307 5295 5285 5274 5265 5256 5246 5236 5227 5219 5206 5190 5182 5184 5177 5173 5160 5154 5147 5141 5136 5141
5511 5501 5491 5482 5471 5457 5451 5441 5431 5419 5408 5397 5386 5376 5366 5359 5349 5339 5326 5315 5303 5292 5282 5270 5260 5251 5240 5232 5224 5216 5206 5197 5189 5181 5177 5163 5156 5145 5140 5137 5127 5119 5116
5498 5488 5479 5469 5460 5444 5438 5431 5419 5406 5394 5384 5375 5363 5354 5344 5334 5324 5312 5300 5289 5279 5270 5258 5248 5237 5228 5222 5215 5207 5197 5188 5180 5173 5164 5156 5146 5137 5127 5119 5110 5106 5106
5488 5479 5468 5457 5447 5434 5427 5419 5405 5393 5381 5371 5362 5352 5342 5328 5319 5308 5297 5288 5277 5266 5255 5246 5236 5227 5218 5212 5208 5198 5191 5183 5175 5168 5157 5147 5137 5126 5115 5111 5100 5093 5097
5477 5468 5456 5445 5435 5424 5417 5405 5392 5379 5371 5359 5350 5339 5327 5314 5301 5293 5283 5274 5263 5253 5244 5235 5226 5218 5210 5204 5197 5188 5182 5175 5169 5160 5148 5139 5129 5120 5109 5099 5091 5083 5082
5463 5454 5444 5435 5423 5414 5404 5390 5377 5365 5356 5344 5336 5324 5313 5302 5288 5279 5270 5260 5250 5241 5234 5226 5217 5208 5203 5196 5188 5180 5173 5167 5159 5147 5139 5131 5122 5113 5102 5093 5083 5078 5076
5451 5441 5430 5419 5408 5398 5388 5374 5363 5352 5341 5328 5317 5306 5298 5288 5275 5265 5257 5249 5239 5230 5223 5216 5208 5198 5192 5185 5177 5171 5164 5154 5142 5132 5125 5119 5111 5103 5095 5086 5078 5075 5073
5431 5423 5413 5402 5393 5383 5372 5357 5344 5334 5326 5314 5303 5295 5286 5272 5261 5253 5243 5236 5228 5221 5216 5207 5198 5190 5183 5176 5169 5160 5151 5140 5128 5116 5110 5106 5098 5092 5084 5076 5073 5071 5072
5414 5402 5393 5385 5373 5364 5354 5343 5333 5320 5310 5302 5289 5280 5267 5257 5247 5236 5230 5223 5216 5209 5202 5195 5189 5181 5173 5165 5156 5146 5136 5126 5116 5107 5101 5095 5087 5080 5072 5065 5065 5066 5068
5395 5384 5375 5365 5355 5342 5333 5325 5318 5306 5297 5283 5273 5263 5248 5241 5234 5227 5217 5208 5201 5194 5185 5179 5169 5161 5157 5149 5140 5131 5121 5111 5102 5095 5087 5080 5072 5067 5064 5058 5056 5056 5056
5373 5361 5352 5343 5332 5323 5313 5301 5297 5287 5277 5268 5258 5246 5235 5229 5223 5216 5208 5202 5194 5183 5173 5167 5159 5150 5143 5137 5129 5120 5109 5100 5091 5083 5074 5065 5059 5055 5053 5049 5047 5047 5049
5353 5341 5331 5321 5311 5301 5290 5282 5269 5261 5258 5249 5242 5235 5226 5215 5208 5202 5197 5190 5182 5174 5166 5159 5151 5141 5133 5124 5113 5104 5094 5084 5076 5067 5060 5053 5049 5044 5040 5038 5039 5041 5043
5326 5320 5312 5302 5292 5280 5270 5261 5250 5239 5231 5224 5221 5214 5205 5196 5190 5184 5178 5173 5161 5149 5135 5125 5118 5112 5107 5100 5091 5082 5073 5064 5056 5049 5043 5038 5034 5030 5029 5029 5031 5032 5034
5302 5294 5286 5277 5268 5259 5248 5237 5229 5221 5211 5201 5196 5191 5181 5175 5168 5161 5153 5139 5128 5119 5111 5105 5098 5092 5086 5077 5068 5058 5049 5042 5035 5031 5027 5023 5022 5018 5018 5021 5024 5026 5028
5274 5268 5261 5253 5244 5236 5228 5218 5209 5201 5193 5185 5174 5165 5156 5148 5138 5129 5123 5115 5107 5100 5092 5084 5077 5069 5062 5053 5045 5036 5029 5022 5017 5013 5010 5009 5010 5009 5012 5015 5018 5020 5021
5250 5244 5237 5228 5220 5211 5202 5194 5188 5179 5170 5158 5149 5143 5141 5127 5117 5109 5101 5095 5088 5082 5076 5067 5057 5048 5040 5031 5023 5016 5009 5004 4998 4996 4996 4997 4998 5000 5003 5009 5012 5014 5016
5224 5215 5209 5202 5195 5188 5181 5173 5165 5155 5143 5135 5128 5121 5120 5108 5099 5092 5085 5079 5073 5066 5059 5049 5038 5029 5021 5014 5007 4998 4990 4983 4979 4982 4985 4988 4992 4995 4998 5003 5006 5009 5012
5198 5191 5184 5178 5171 5163 5154 5145 5137 5130 5122 5114 5108 5102 5094 5087 5081 5074 5067 5062 5055 5046 5037 5029 5021 5014 5008 4999 4990 4982 4974 4970 4970 4976 4979 4983 4987 4991 4994 4997 5002 5006 5009
5172 5167 5159 5150 5144 5136 5129 5122 5116 5110 5103 5096 5088 5082 5079 5073 5065 5057 5050 5043 5035 5027 5021 5015 5008 5002 4994 4987 4980 4973 4967 4966 4968 4973 4978 4983 4988 4992 4994 4996 5000 5004 5008
5146 5141 5135 5128 5120 5114 5108 5100 5095 5088 5083 5078 5073 5068 5062 5055 5047 5039 5033 5025 5017 5012 5008 5004 4999 4992 4987 4982 4976 4972 4969 4969 4972 4977 4982 4986 4990 4993 4994 4996 5001 5004 5008
5121 5117 5113 5108 5102 5095 5088 5083 5078 5072 5066 5063 5057 5051 5044 5038 5031 5023 5016 5009 5005 5001 4999 4996 4993 4989 4985 4980 4976 4975 4976 4978 4981 4985 4988 4991 4992 4995 4996 4999 5002 5005 5011